Location: Old Broadwell Mill Observatory
(33.8015°N, 85.8137°W)
Time: 02:29:13
(UTC-05:00)

Gurwin Techsat 1B - Visible Passes

Search period start: 23 August 2014 00:00
Search period end: 02 September 2014 00:00
Orbit: 812 x 815 km, 98.5° (Epoch: 21 August)

Date Brightness Start Highest point End Pass type
(mag) Time Alt. Az. Time Alt. Az. Time Alt. Az.
23 Aug 11.2 02:19:16 10° ENE 02:20:53 13° E 02:20:53 13° E visible
23 Aug 8.7 03:56:55 10° N 04:02:06 59° WNW 04:02:06 59° WNW visible
24 Aug 8.7 03:34:13 10° NNE 03:39:06 75° NE 03:39:06 75° NE visible
24 Aug 10.6 05:17:57 10° NW 05:18:44 10° WNW 05:19:31 10° WNW visible
25 Aug 9.5 03:11:44 10° NNE 03:16:05 45° ENE 03:16:05 45° ENE visible
25 Aug 10.1 04:52:59 10° NNW 04:56:24 18° WNW 04:57:18 17° WNW visible
26 Aug 10.3 02:49:34 10° NE 02:53:05 27° ENE 02:53:05 27° ENE visible
26 Aug 9.6 04:29:30 10° NNW 04:33:59 29° WNW 04:34:18 28° WNW visible
27 Aug 11.0 02:27:54 10° NE 02:30:04 16° ENE 02:30:04 16° ENE visible
27 Aug 9.0 04:06:26 10° N 04:11:17 47° WNW 04:11:17 47° WNW visible
28 Aug 8.7 03:43:37 10° N 03:48:17 67° NNW 03:48:17 67° NNW visible
29 Aug 9.3 03:21:02 10° NNE 03:25:16 51° NE 03:25:16 51° NE visible
29 Aug 10.3 05:03:00 10° NNW 05:05:41 14° WNW 05:06:29 14° WNW visible
30 Aug 10.2 02:58:43 10° NNE 03:02:15 32° ENE 03:02:15 32° ENE visible
30 Aug 9.8 04:39:13 10° NNW 04:43:18 23° WNW 04:43:28 23° WNW visible
31 Aug 10.9 02:36:47 10° NE 02:39:15 19° ENE 02:39:15 19° ENE visible
31 Aug 9.3 04:15:59 10° N 04:20:27 37° WNW 04:20:27 37° WNW visible
01 Sep 11.4 02:15:46 10° ENE 02:16:14 11° ENE 02:16:14 11° ENE visible
01 Sep 8.9 03:53:04 10° N 03:57:27 54° NNW 03:57:27 54° NNW visible
